This is the latest recevied weather packets stored in our database for station/object K7FLA. If no packets are shown the sender has not sent any weather packets the latest 10 day(s).
| Time | Temp. | Humidity | Pressure | Rain* | Wind** | Luminosity | Snow |
|---|---|---|---|---|---|---|---|
| 1777447146 | 10.56° C | 73% | 1097.9 hPa | 0 mm | - | 0 W/m² | - |
| 1777446845 | 10.56° C | 73% | 1098 hPa | 0 mm | - | 0 W/m² | - |
| 1777446541 | 10.56° C | 73% | 1098 hPa | 0 mm | - | 0 W/m² | - |
| 1777446237 | 10.56° C | 74% | 1097.9 hPa | 0 mm | - | 0 W/m² | - |
| 1777445935 | 10.56° C | 75% | 1098 hPa | 0 mm | - | 0 W/m² | - |
| 1777445630 | 11.11° C | 74% | 1098 hPa | 0 mm | - | 0 W/m² | - |
| 1777445327 | 11.11° C | 73% | 1098.1 hPa | 0 mm | - | 0 W/m² | - |
| 1777445023 | 11.11° C | 70% | 1098 hPa | 0 mm | - | 0 W/m² | - |
| 1777444719 | 11.67° C | 71% | 1098.1 hPa | 0 mm | - | 0 W/m² | - |
| 1777444410 | 11.67° C | 73% | 1098.1 hPa | 0 mm | - | 0 W/m² | - |
| 1777444108 | 11.67° C | 71% | 1098.1 hPa | 0 mm | - | 0 W/m² | - |
| 1777443803 | 11.67° C | 72% | 1098 hPa | 0 mm | - | 0 W/m² | - |
| 1777443499 | 11.67° C | 71% | 1098.2 hPa | 0 mm | - | 0 W/m² | - |
| 1777443196 | 11.67° C | 69% | 1098.1 hPa | 0 mm | - | 0 W/m² | - |
| 1777442893 | 11.67° C | 69% | 1098.2 hPa | 0 mm | - | 0 W/m² | - |
| 1777442589 | 11.67° C | 68% | 1098.2 hPa | 0 mm | - | 0 W/m² | - |
| 1777442284 | 12.22° C | 68% | 1097.9 hPa | 0 mm | - | 0 W/m² | - |
| 1777441981 | 12.22° C | 69% | 1097.9 hPa | 0 mm | - | 0 W/m² | - |
| 1777441676 | 12.22° C | 68% | 1098.1 hPa | 0 mm | - | 0 W/m² | - |
| 1777441371 | 12.78° C | 67% | 1098.2 hPa | 0 mm | - | 0 W/m² | - |
| 1777441067 | 12.78° C | 67% | 1098 hPa | 0 mm | - | 0 W/m² | - |
| 1777440763 | 12.78° C | 67% | 1098.1 hPa | 0 mm | - | 0 W/m² | - |
| 1777440459 | 12.78° C | 67% | 1098 hPa | 0 mm | - | 0 W/m² | - |
| 1777440154 | 12.78° C | 67% | 1098.2 hPa | 0 mm | - | 0 W/m² | - |
| 1777439851 | 12.78° C | 67% | 1098 hPa | 0 mm | - | 0 W/m² | - |
* Rain latest hour (hover to see other rain measurements)
** Current wind speed in m/s (hover to see current wind gust speed)